Weather History for Anaktuvuk Pass, AK

Change the Weather History Date:

Wednesday, July 17, 2013

  Actual Average Record
Temperature  
Mean Temperature 54 °F -  
Max Temperature 59 °F 60 °F 71 °F (1998)
Min Temperature 48 °F 43 °F 32 °F (2003)
Degree Days  
Heating Degree Days 12    
Growing Degree Days 4 (Base 50)    
Moisture  
Dew Point 44 °F    
Average Humidity 72    
Maximum Humidity 82    
Minimum Humidity 59    
Precipitation  
Precipitation 0.07 in - - ()
Sea Level Pressure  
Sea Level Pressure 30.01 in    
Wind  
Wind Speed 8 mph (NE)    
Max Wind Speed 13 mph    
Max Gust Speed 16 mph    
Visibility 9 miles    
Events      
Averages and records for this station are not official NWS values.
T = Trace of Precipitation, MM = Missing Value Source: NWS Daily Summary

Daily Weather History Graph

Daily Weather History Graph

Search for Another Location

Airport:

Trip Planner

Search our weather history database for the weather conditions in past years. The results will help you decide how hot, cold, wet, or windy it might be!

Date:

Astronomy

Jul. 17, 2013 Rise Set
Actual Time 2:45 AM AKDT 1:52 AM AKDT
Civil Twilight Sun does not rise Sun does not rise
Nautical Twilight Sun does not rise Sun does not rise
Astronomical Twilight Sun does not rise Sun does not rise
Moon 7:07 PM AKDT (7/17) 12:04 AM AKDT (7/17)
Length of Visible Light 24h 00m
Length of Day
23h 07m
Waxing Gibbous, 68% of the Moon is Illuminated
Jul 17
Waxing Gibbous
Jul 22
Full
Jul 29
Last Quarter
Aug 6
New
Aug 14
First Quarter

Hourly Weather History & Observations

Time (AKDT) Temp. Dew Point Humidity Pressure Visibility Wind Dir Wind Speed Gust Speed Precip Events Conditions
12:16 AM 57.2 °F 42.8 °F 59% 29.97 in 10.0 mi SW 8.1 mph - N/A   Overcast
12:36 AM 55.4 °F 42.8 °F 63% 29.98 in 10.0 mi SW 9.2 mph 16.1 mph N/A   Overcast
12:56 AM 53.6 °F 42.8 °F 67% 29.98 in 10.0 mi SSW 4.6 mph - N/A   Overcast
1:16 AM 53.6 °F 42.8 °F 67% 29.99 in 10.0 mi NE 5.8 mph - N/A   Overcast
1:36 AM 53.6 °F 44.6 °F 72% 29.99 in 10.0 mi NE 4.6 mph - N/A   Overcast
1:56 AM 53.6 °F 44.6 °F 72% 29.99 in 10.0 mi East 6.9 mph - N/A   Overcast
2:16 AM 51.8 °F 42.8 °F 71% 30.00 in 10.0 mi NE 11.5 mph 16.1 mph N/A   Overcast
2:36 AM 51.8 °F 42.8 °F 71% 30.00 in 10.0 mi NNE 9.2 mph - N/A   Overcast
2:56 AM 50.0 °F 42.8 °F 76% 30.00 in 10.0 mi NE 6.9 mph - N/A   Overcast
3:16 AM 50.0 °F 42.8 °F 76% 30.00 in 10.0 mi NE 8.1 mph - N/A   Overcast
3:36 AM 50.0 °F 42.8 °F 76% 30.00 in 9.0 mi NE 8.1 mph - N/A   Overcast
3:56 AM 50.0 °F 42.8 °F 76% 30.00 in 8.0 mi ENE 9.2 mph - N/A   Overcast
4:16 AM 50.0 °F 42.8 °F 76% 30.00 in 5.0 mi NE 6.9 mph - N/A   Overcast
4:36 AM 50.0 °F 42.8 °F 76% 30.00 in 10.0 mi ENE 8.1 mph - N/A   Overcast
4:56 AM 50.0 °F 42.8 °F 76% 30.00 in 4.0 mi NE 4.6 mph - 0.01 in   Overcast
5:16 AM 50.0 °F 42.8 °F 76% 30.01 in 3.0 mi NE 4.6 mph - N/A   Overcast
5:36 AM 50.0 °F 42.8 °F 76% 30.00 in 3.0 mi NE 4.6 mph - 0.01 in   Overcast
5:56 AM 50.0 °F 42.8 °F 76% 30.00 in 8.0 mi ENE 5.8 mph - 0.01 in   Overcast
6:16 AM 50.0 °F 42.8 °F 76% 30.01 in 7.0 mi ENE 5.8 mph - 0.01 in   Overcast
6:36 AM 50.0 °F 42.8 °F 76% 30.00 in 7.0 mi ENE 9.2 mph - 0.03 in   Overcast
6:56 AM 50.0 °F 41.0 °F 71% 30.00 in 10.0 mi ENE 8.1 mph - 0.04 in   Overcast
7:16 AM 48.2 °F 41.0 °F 76% 30.01 in 9.0 mi ENE 9.2 mph - N/A   Overcast
7:36 AM 48.2 °F 41.0 °F 76% 30.01 in 10.0 mi NE 5.8 mph - 0.01 in   Overcast
7:56 AM 50.0 °F 41.0 °F 71% 30.01 in 10.0 mi NE 8.1 mph - 0.01 in   Overcast
8:16 AM 50.0 °F 41.0 °F 71% 30.01 in 10.0 mi NE 8.1 mph - N/A   Overcast
8:36 AM 51.8 °F 41.0 °F 67% 30.01 in 10.0 mi NE 8.1 mph - N/A   Overcast
8:56 AM 51.8 °F 41.0 °F 67% 30.01 in 10.0 mi ENE 9.2 mph - N/A   Overcast
5:36 PM 59.0 °F 46.4 °F 63% 30.00 in - NE 8.1 mph - N/A   Unknown
5:56 PM 57.2 °F 44.6 °F 63% 30.00 in 10.0 mi ENE 8.1 mph - N/A   Mostly Cloudy
6:16 PM 57.2 °F 44.6 °F 63% 30.00 in 10.0 mi NNE 6.9 mph - N/A   Mostly Cloudy
6:36 PM 57.2 °F 44.6 °F 63% 30.00 in 10.0 mi NNE 5.8 mph - N/A   Overcast
6:56 PM 57.2 °F 46.4 °F 67% 30.00 in 10.0 mi NNE 6.9 mph - N/A   Overcast
7:16 PM 57.2 °F 44.6 °F 63% 30.00 in 10.0 mi West 5.8 mph - N/A   Overcast
7:36 PM 57.2 °F 44.6 °F 63% 30.00 in 10.0 mi NW 8.1 mph - N/A   Overcast
7:56 PM 57.2 °F 44.6 °F 63% 30.01 in 10.0 mi North 12.7 mph - N/A   Overcast
8:16 PM 55.4 °F 44.6 °F 67% 30.02 in 10.0 mi NE 11.5 mph - N/A   Overcast
8:36 PM 55.4 °F 44.6 °F 67% 30.02 in 10.0 mi NE 10.4 mph - N/A   Overcast
8:56 PM 55.4 °F 46.4 °F 72% 30.02 in 10.0 mi NNE 10.4 mph - N/A   Scattered Clouds
9:16 PM 55.4 °F 46.4 °F 72% 30.02 in 10.0 mi NNE 11.5 mph - N/A   Mostly Cloudy
9:36 PM 55.4 °F 46.4 °F 72% 30.02 in 10.0 mi NNE 11.5 mph - N/A   Overcast
9:56 PM 55.4 °F 46.4 °F 72% 30.02 in 10.0 mi NE 10.4 mph - N/A   Overcast
10:16 PM 53.6 °F 48.2 °F 82% 30.02 in 10.0 mi NNE 6.9 mph - N/A   Overcast
10:36 PM 53.6 °F 48.2 °F 82% 30.03 in 10.0 mi ENE 6.9 mph - N/A   Overcast
10:56 PM 53.6 °F 46.4 °F 77% 30.03 in 10.0 mi ENE 4.6 mph - N/A   Scattered Clouds
11:16 PM 53.6 °F 46.4 °F 77% 30.03 in 10.0 mi ENE 6.9 mph - N/A   Clear
11:36 PM 51.8 °F 46.4 °F 82% 30.03 in 10.0 mi North 4.6 mph - N/A   Clear
11:56 PM 51.8 °F 46.4 °F 82% 30.03 in 10.0 mi North 4.6 mph - N/A   Clear